Flag for Norway Weather past 2 weeks in Drammen, Norway

Now
59 °F

Partly sunny.


Feels Like: 54 °F
Forecast: 55 / 71 °F
Wind: 32 mph from Southeast

Location: Oslo / Fornebu

Current Time: Aug 4, 2015 at 7:38:17 AM

Latest Report: Aug 4, 2015 at 6:50 AM


Visibility: N/A

Pressure: 29.68 "Hg

Humidity: 88%

Dew point: 55 °F

Location of DrammenLocation

Historic Weather in Drammen — Graph

°F

Drammen temperature yesterday

Maximum temperature yesterday: 59 °F (at 8:20 PM)
Minimum temperature yesterday: 54 °F (at 12:20 AM)
Average temperature yesterday: 56 °F

Past Weeks' High & Low Weather Summary

 TemperatureHumidityPressure
High66 °F (Aug 4, 3:20 AM)100% (Jul 22, 2:50 AM)30.09 "Hg (Jul 22, 2:50 AM)
Low46 °F (Jul 31, 5:20 AM)59% (Jul 20, 11:20 AM)29.50 "Hg (Jul 21, 10:20 AM)
Average54 °F82%29.75 "Hg
* Reported Jul 20 6:20 AM — Aug 4 6:20 AM, Drammen, Weather by CustomWeather, © 2015

Note: Actual official high and low records may vary slightly from our data, if they occured in-between our weather recording intervals... More about our weather records

Advertising

Drammen weather history for previous 24 hours

 ConditionsComfort  
Time TempWeatherWind HumidityBarometerVisibility
6:20 AM
Tue, Aug 4
59 °FPartly sunny.32 mph88%29.68 "HgN/A
5:50 AM63 °FPassing clouds.33 mph77%29.68 "HgN/A
5:20 AM63 °FOvercast.35 mph77%29.71 "HgN/A
4:50 AM63 °FOvercast.35 mph73%29.71 "HgN/A
4:20 AM64 °FOvercast.37 mph68%29.71 "HgN/A
3:50 AM64 °FPassing clouds.39 mph68%29.74 "HgN/A
3:20 AM66 °FPassing clouds.40 mph60%29.74 "HgN/A
2:50 AM63 °FPassing clouds.41 mph64%29.74 "HgN/A
2:20 AM63 °FPassing clouds.39 mph64%29.74 "HgN/A
1:50 AM61 °FPassing clouds.41 mph63%29.77 "HgN/A
1:20 AM61 °FPassing clouds.45 mph63%29.77 "HgN/A
12:50 AM61 °FPassing clouds.46 mph63%29.77 "HgN/A
12:20 AM59 °FPassing clouds.44 mph72%29.80 "HgN/A
11:50 PM
Mon, Aug 3
59 °FPassing clouds.44 mph72%29.80 "HgN/A
11:20 PM59 °FPassing clouds.44 mph72%29.80 "HgN/A
10:50 PM59 °FLight rain. Passing clouds.41 mph72%29.83 "HgN/A
10:20 PM59 °FBroken clouds.43 mph72%29.83 "HgN/A
9:50 PM59 °FPartly sunny.40 mph72%29.86 "HgN/A
9:20 PM59 °FBroken clouds.41 mph72%29.86 "HgN/A
8:50 PM59 °FPartly sunny.41 mph68%29.86 "HgN/A
8:20 PM59 °FPartly sunny.40 mph68%29.86 "HgN/A
7:50 PM57 °FPartly sunny.38 mph72%29.86 "HgN/A
7:20 PM57 °FPartly sunny.39 mph72%29.89 "HgN/A
6:50 PM57 °FPartly sunny.40 mph67%29.89 "HgN/A
6:20 PM57 °FPartly sunny.37 mph72%29.92 "HgN/A
5:50 PM57 °FPartly sunny.38 mph72%29.92 "HgN/A
5:20 PM55 °FSprinkles. Partly sunny.36 mph77%29.95 "HgN/A
4:50 PM55 °FPartly sunny.36 mph77%29.95 "HgN/A
4:20 PM55 °FPartly sunny.32 mph82%29.95 "HgN/A
3:50 PM55 °FPartly sunny.32 mph82%29.98 "HgN/A
3:20 PM55 °FLight rain. Partly sunny.31 mph77%29.98 "HgN/A
2:50 PM55 °FPartly sunny.29 mph77%29.98 "HgN/A
2:20 PM55 °FPartly sunny.26 mph77%30.01 "HgN/A
1:50 PM57 °FPartly sunny.25 mph72%30.01 "HgN/A
1:20 PM57 °FPartly sunny.22 mph77%30.01 "HgN/A
12:50 PM57 °FPartly sunny.21 mph82%30.01 "HgN/A
12:20 PM55 °FPartly sunny.22 mph88%30.04 "HgN/A
11:50 AM55 °FSprinkles. Partly sunny.22 mph88%30.04 "HgN/A
11:20 AM55 °FSprinkles. Partly sunny.21 mph88%30.04 "HgN/A
10:50 AM55 °FDrizzle. Partly sunny.22 mph88%30.04 "HgN/A
10:20 AM57 °FPartly sunny.22 mph77%30.04 "HgN/A
9:50 AM57 °FPartly sunny.20 mph77%30.04 "HgN/A
9:20 AM57 °FBroken clouds.21 mph77%30.04 "HgN/A
8:50 AM55 °FPartly sunny.20 mph82%30.04 "HgN/A
8:20 AM55 °FBroken clouds.18 mph82%30.04 "HgN/A
7:50 AM55 °FPartly sunny.20 mph77%30.04 "HgN/A
7:20 AM55 °FPartly sunny.18 mph77%30.04 "HgN/A
Weather by CustomWeather, © 2015

See weather overviewHow to use our weather pages